NUSANTARA SATU (44048 NORAD) Tracking and Keplerian Element Data

This shows tracking and keplerian element data for the satellite.

Feedback or suggestion? Click here.




ElementValue
Catalog44048
NameNUSANTARA SATU
Epoch Orbit148
Epoch Day202.93732142
Epoch Year2019
RAAN54.4408
Inclination0.0176
Eccentricity0.0002101
Argument of Perigee68.0451
Mean Anonmoly300.3488
Mean Motion1.00271223
Decay Rate-2.37E-06
L11 44048U 19009A 19202.93732142 -.00000237 00000-0 00000+0 0 9996
L22 44048 0.0176 54.4408 0002101 68.0451 300.3488 1.00271223 1486

Live tracking and technical data element details for NUSANTARA SATU (NORAD 44048). NUSANTARA SATU can be tracked NOW for your location showing map with azimuth and elevation plus other details from your city location.

Track the satellite on the map from your city or location and see movement details for azimuth, elevation, latitude, longitude, range, height, and movement on the map or in text.







IsCatalogInMostPopularTable: catalog: 44048, numindb: 82
Update: records affected: 1



GetName: 44048 NUSANTARA SATU

Hit Count: updated at: Mon, 22 Jul 2019 17:00:50 GMT